STARLINK-37553, 69820

Orbit data source: Space-Track

STARLINK-37553, 69820 is a payload satellite owned by SpaceX/Seattle (US) in LEO that was launched on Sun, 05 Jul 2026 UTC via an FALCON 9 launch vehicle from the Air Force Eastern Test Range (AFETR). Payload-class satellites include a variety of spacecraft equipped with specific instruments for various scientific and technological missions. These include communications satellites like Starlink; space stations such as the ISS; scientific satellites like the Hubble; Earth observation satellites from companies like Planet Labs, Umbra, and HawkEye 360; GPS; miniature CubeSats for education and research; and military/defense satellites.

Loading next visibility...
Identifier
69820, 2026-154B
Orbit
LEO
Country
Flag of USUS
Related business
Manufacturer
SpaceX/Seattle
Mission
Operational spacecraft
Bus & Motor
STARLINK V2MO, Unknown motor
Mass
575 kg wet, ~530 kg dry
Launch date (UTC)
2026-07-05 (2 months ago)
Launch vehicle
FALCON 9
Launch site
Air Force Eastern Test Range (AFETR)
Object type
Payload
Rocket body
Debris
Shape & HBR
BOX + PAN, 17.7 m
Radar Cross Section
Large (>1 m²)

Expand to show TLE details & history
Last TLE update: 12 hours ago

TLE from 12 hours ago
0 STARLINK-37553
1 69820U 26154B   26236.35734243  .00021318  00000-0  64048-3 0  9993
2 69820  53.1611  98.4247 0001652  82.6420 277.4770 15.34389695  9077
Epoch: 2026-08-24T08:34Z
TLE epoch observation values (Epoch: 2026-08-24T08:34:34.385Z)
Latitude
-0.00007°
Longitude
-2.85883°
Altitude
463.488 km
Speed
7.636 km/s
True Right ascension
06h 33m 41s
True Declination
0° 00' 00"
Sunlit
Object was in daylight at epoch
Visualization orbit readout
Latitude
Unknown
Longitude
Unknown
Altitude
Unknown
Speed
Unknown
Apparent Right ascension
Unknown
Apparent Declination
Unknown
Sunlit
N/A
Visualization observer readout
Local Sidereal Time
12:10:04
Azimuth
Unknown
Elevation
Unknown
Doppler factor
Unknown
Orbital elements
Apogee altitude
464.121 km
Perigee altitude
461.86 km
Semi-major axis
6,841.128 km
Eccentricity
0.00017
Inclination
53.1611°
RAAN
98.4247°
Arg. of periapsis
82.642°
True anomaly
277.45823°
Mean anomaly
277.477°
Eccentric anomaly
277.46762°
Mean motion
3.83576 °/min
Orbital period
93.85 mins
BSTAR
0.00064048
Loading maneuver chart data...
Computing Atmospheric mass density...
Loading historical data...
Loading historical data...
Loading historical data...
Loading historical data...
Loading historical data...
Loading historical data...
Loading historical data...

Documentation

Showing up to 5 results
|